Nome, AK

1:27 PM AKDT on May 21, 2018 (GMT -0800)
Nome

Weather History for PAOM - November, 2013

Change the Weather History Date:

Tuesday, November 19, 2013

  Actual Average Record
Temperature  
Mean Temperature 4 °F 16 °F  
Max Temperature 12 °F 22 °F 41 °F (2001)
Min Temperature -5 °F 9 °F -22 °F (1969)
Degree Days  
Heating Degree Days 61 49  
Month to date heating degree days 786 882  
Since 1 July heating degree days 3210 3532  
Cooling Degree Days 0 0  
Month to date cooling degree days 0 0  
Year to date cooling degree days 7 3  
Moisture  
Dew Point -6 °F    
Average Humidity 0    
Maximum Humidity 0    
Minimum Humidity 0    
Precipitation  
Precipitation 0.00 in 0.04 in 0.54 in (1938)
Month to date precipitation 1.44 0.81  
Year to date precipitation 20.08 15.32  
Snow  
Snow 0.00 in 0.40 in 6.00 in (1915)
Month to date snowfall 6.1 7.5  
Since 1 July snowfall 7.7 12.7  
Since 1 September snowfall 7.7 12.7  
Snow Depth 2.00 in    
Sea Level Pressure  
Sea Level Pressure 30.27 in    
Wind  
Wind Speed 6 mph (NNE)    
Max Wind Speed 18 mph    
Max Gust Speed 24 mph    
Visibility 10 miles    
Events      
T = Trace of Precipitation, MM = Missing Value Source: NWS Daily Summary

Daily Weather History Graph

Daily Weather History Graph

Search for Another Location

Airport or City:

Astronomy

Nov. 19, 2013 Rise Set
Actual Time 10:48 AM AKST 4:44 PM AKST
Civil Twilight 9:44 AM AKST 5:49 PM AKST
Nautical Twilight 8:41 AM AKST 6:52 PM AKST
Astronomical Twilight 7:43 AM AKST 7:49 PM AKST
Moon 6:38 PM AKST (11/19) 12:47 PM AKST (11/19)
Length of Visible Light 8h 04m
Length of Day
5h 55m
Waning Gibbous, 95% of the Moon is Illuminated
Nov 19
Waning Gibbous
Nov 25
Last Quarter
Dec 2
New
Dec 9
First Quarter
Dec 17
Full

Hourly Weather History & Observations

Time (AKST) Temp. Windchill Dew Point Humidity Pressure Visibility Wind Dir Wind Speed Gust Speed Precip Events Conditions
12:53 AM 9.0 °F - 1.9 °F 73% 30.24 in 10.0 mi Calm Calm - N/A   Scattered Clouds
1:53 AM 10.9 °F -0.8 °F 3.0 °F 70% 30.24 in 10.0 mi NE 8.1 mph - N/A   Mostly Cloudy
2:53 AM 10.9 °F -3.4 °F 3.0 °F 70% 30.22 in 10.0 mi NNE 11.5 mph 18.4 mph N/A   Scattered Clouds
3:53 AM 9.0 °F -5.9 °F 1.9 °F 73% 30.22 in 10.0 mi NNE 11.5 mph - N/A   Scattered Clouds
4:53 AM 9.0 °F -6.6 °F 1.9 °F 73% 30.22 in 10.0 mi NNE 12.7 mph - N/A   Scattered Clouds
5:53 AM 7.0 °F -5.7 °F 1.0 °F 77% 30.22 in 10.0 mi NNE 8.1 mph - N/A   Scattered Clouds
6:53 AM 7.0 °F -7.5 °F -0.9 °F 70% 30.23 in 10.0 mi NNE 10.4 mph - N/A   Scattered Clouds
7:53 AM 5.0 °F -6.9 °F -4.0 °F 66% 30.23 in 10.0 mi NNE 6.9 mph - N/A   Scattered Clouds
8:53 AM 5.0 °F - -6.0 °F 61% 30.24 in 10.0 mi Calm Calm - N/A   Scattered Clouds
9:53 AM 6.1 °F -7.8 °F -6.0 °F 58% 30.25 in 10.0 mi ENE 9.2 mph - N/A   Partly Cloudy
10:53 AM 5.0 °F -9.1 °F -7.1 °F 58% 30.25 in 10.0 mi ENE 9.2 mph - N/A   Partly Cloudy
11:53 AM 5.0 °F -8.1 °F -7.1 °F 58% 30.27 in 10.0 mi NE 8.1 mph - N/A   Clear
12:53 PM 5.0 °F -10.0 °F -8.0 °F 55% 30.28 in 10.0 mi NE 10.4 mph - N/A   Clear
1:53 PM 5.0 °F -2.1 °F -8.0 °F 55% 30.29 in 10.0 mi NNE 3.5 mph - N/A   Clear
2:53 PM 6.1 °F -6.8 °F -9.0 °F 50% 30.29 in 10.0 mi NNE 8.1 mph - N/A   Clear
3:53 PM 1.9 °F -11.8 °F -9.0 °F 60% 30.29 in 10.0 mi East 8.1 mph - N/A   Clear
4:53 PM 3.0 °F - -11.0 °F 52% 30.28 in 10.0 mi Calm Calm - N/A   Clear
5:53 PM -2.0 °F - -11.0 °F 66% 30.30 in 10.0 mi Calm Calm - N/A   Clear
6:53 PM -0.9 °F - -11.9 °F 60% 30.30 in 10.0 mi Calm Calm - N/A   Clear
7:53 PM -0.9 °F - -11.9 °F 60% 30.31 in 10.0 mi Calm Calm - N/A   Clear
8:53 PM 3.0 °F -4.4 °F -11.9 °F 50% 30.31 in 10.0 mi WSW 3.5 mph - N/A   Clear
9:53 PM -2.0 °F -17.7 °F -11.9 °F 63% 30.30 in 10.0 mi NW 9.2 mph - N/A   Clear
10:53 PM -5.1 °F - -13.0 °F 69% 30.31 in 10.0 mi Calm Calm - N/A   Clear
11:53 PM -5.1 °F - -14.1 °F 65% 30.32 in 10.0 mi Calm Calm - N/A   Clear